Regional Weather Roundup
Issued by NWS Charleston, SC

Current Version | Previous Version | Graphics & Text | Print | Product List | Glossary On
Versions: 1 2 3 4 5 6 7 8 9 10 11 12 13 14 15 16 17 18 19 20 21 22 23 24 25 26 27 28 29 30 31 32 33 34 35 36 37 38 39 40 41 42 43 44 45 46 47 48 49 50
000
ASUS42 KCHS 250325
RWRCHS

REGIONAL WEATHER ROUNDUP
NATIONAL WEATHER SERVICE CHARLESTON SC
1000 PM EST WED DEC 24 2014

NOTE: "FAIR" INDICATES FEW OR NO CLOUDS BELOW 12,000 FEET WITH NO
SIGNIFICANT WEATHER AND/OR OBSTRUCTIONS TO VISIBILITY.

NOT ALL STATIONS ARE QUALITY CONTROLLED BY THE NATIONAL
WEATHER SERVICE. USE DATA WITH CAUTION...ESPECIALLY
DEWPOINT OBSERVATIONS.

SCZ027-030-031-034>040-042>050-250400-
...SOUTHEAST SOUTH CAROLINA...

CITY           SKY/WX    TMP DP  RH WIND       PRES   REMARKS
N CHARLESTON   MOCLDY    64  62  93 SW8       29.78R
WATERFRONT PRK   N/A     63 N/A N/A SW10        N/A
MOUNT PLEASANT LGT RAIN  64  63  94 S9        29.79R
PINOPOLIS        N/A     66  64  94 S6        29.68R
MONCKS CORNER  DRIZZLE   66  63  88 SW6       29.77R
SUMMERVILLE    CLOUDY    64  64 100 SW3       29.78S
BEAUFORT MCAS  CLOUDY    64  63  96 SW8       29.79R
BEAUFORT ARPT  CLOUDY    63  63 100 SW7       29.79R
HILTON HEAD IS MOCLDY    64  64 100 S9        29.82R
WALTERBORO     CLOUDY    66 N/A N/A SW8       29.78F
ALLENDALE      CLOUDY    66  66 100 SW6G12    29.78R

...SOUTHERN MIDLANDS AND PEE DEE...

CITY           SKY/WX    TMP DP  RH WIND       PRES   REMARKS
GEORGETOWN     NOT AVBL
KINGSTREE      NOT AVBL
ORANGEBURG     CLOUDY    66  63  90 SW13      29.75R
BARNWELL         N/A     66  64  94 SW8       29.78R
AIKEN          DRIZZLE   61  61 100 W17G24    29.81R
MANNING        CLOUDY    64 N/A N/A S8        29.75R
COLUMBIA       CLOUDY    67  63  87 SW8       29.72S
SUMTER         CLOUDY    64  63  94 SW9       29.72R
FLORENCE       CLOUDY    66  63  90 SW10      29.73R
MYRTLE BEACH   DRIZZLE   61  57  88 S14       29.76F
N MYRTLE BEACH CLOUDY    61  59  93 S15       29.74F

$$

GAZ063-065-086>088-099>101-113>116-118-119-134>141-150-250400-
...SOUTHEAST GEORGIA...

CITY           SKY/WX    TMP DP  RH WIND       PRES   REMARKS
SAVANNAH ARPT  LGT RAIN  66  64  93 SW8       29.81R
HUNTER AAF     MOCLDY    66  66 100 SW10      29.81R
FORT STEWART   CLOUDY    68  64  88 W13G24    29.83R
STATESBORO     LGT RAIN  66  66 100 SW12G18   29.82R
SYLVANIA       CLOUDY    66  66  98 W8        29.81R
CLAXTON        DRIZZLE   66  64  94 W10G16    29.83R

...CSRA...CENTRAL AND FAR SOUTHEAST GEORGIA...

CITY           SKY/WX    TMP DP  RH WIND       PRES   REMARKS
THOMSON        CLOUDY    58  52  83 W13G18    29.90R
AUGUSTA-BUSH   LGT RAIN  63  57  81 W14       29.78R
AUGUSTA-DANIEL LGT RAIN  62  53  72 W10G21    29.79R
SWAINSBORO     CLOUDY    61  61 100 W12G25    29.88R
VIDALIA        CLOUDY    59  54  82 W14G23    29.90R
EASTMAN        MOCLDY    55  49  81 NW7       29.90F
HAZLEHURST     CLOUDY    59  55  85 W10G17    29.88S
ALMA           CLOUDY    63  58  83 W12G22    29.87R
WAYCROSS       CLOUDY    68  66  93 W10       29.86F
JESUP          DRIZZLE   70  66  88 W8G17     29.86R
BAXLEY         CLOUDY    63  59  88 NW12      29.87R
BRUNSWICK      CLOUDY    68  63  83 SW16G24   29.88R
SAINT SIMONS   CLOUDY    67  65  93 SW13      29.85R

$$

SCZ027-028-034-036>038-045-046-048>050-GAZ119-141-250400-
...LAKE AND SUPPLEMENTAL COASTAL OBSERVATIONS...

STATION/POSITION TIME  TEMP    WIND        PRES    WAVE   SWELL
                       AIR SEA DIR/SP/G            HT/PER HT/PER/DIR
                 (UTC) (F)     (DEG/KT/KT) (MB)    (FT/S) (FT/S/D)
UPR LAKE MARION  NOT AVBL
WINYAH BAY       0300   62     200/  8     1007.0S
LAKE MURRAY      0300   62     200/  8/ 11 1006.1S
ACE BASIN NERRS  NOT AVBL
FORT PULASKI     0300   62 56  210/  4/  7 1009.9R
SAPELO ISLAND    0300   64     220/ 12     1010.0R

$$

ANZ835-935-AMZ111-154-330-350-352-354-370-450-454-472-250400-
...C-MAN AND BUOY OBSERVATIONS...

STATION/POSITION TIME  TEMP    WIND        PRES    WAVE   SWELL
                       AIR SEA DIR/SP/G            HT/PER HT/PER/DIR
                 (UTC) (F)     (DEG/KT/KT) (MB)    (FT/S) (FT/S/D)
BUOY 41004       0300   72 74  210/ 16/ 17 1007.9F   7/ 8   5/ 8
BUOY 41008       0300   62 59  190/ 12/ 14 1009.6R   4/ 7   3/140/ 7
FOLLY BEACH CMAN 0300   58     220/  7/  9 1009.2R
CAPERS NEARSHORE 0200   61     190/ 12/ 14   N/A
FRIPP NEARSHORE  NOT AVBL


STATION/POSITION TIME  TEMP    WIND        PRES    WAVE   SWELL
                       AIR SEA DIR/SP/G            HT/PER HT/PER/DIR
                 (UTC) (F)     (DEG/KT/KT) (MB)    (FT/S) (FT/S/D)
5E ST. MARYS GA  0300      62                N/A     4/ 6
FRYING PAN BUOY  0300   70 71  210/ 14/ 17 1009.0R   7/ 8   5/180/ 8
BUOY 41025       0300   75                 1008.8F   9/ 8
CAPE LOOKOUT NC  0300   63     190/  7/  9 1008.1F
BUOY 41002       0246   74 71  190/ 17/ 21 1014.5F   7/ 7   2/ 70/10
BUOY 41010       0300   77 77  190/ 21/ 25 1013.4R   5/ 6   3/230/ 7
ST AUGUSTINE FL  0300   66     260/ 10/ 14 1013.2R


$$



USA.gov is the U.S. government's official web portal to all federal, state and local government web resources and services.